Year,Month,Day,Hour,Minute,Value (Times are PST for temperature in C)
2023,04,27,00,00,3.10
2023,04,27,00,01,3.10
2023,04,27,00,02,3.10
2023,04,27,00,03,3.10
2023,04,27,00,04,3.10
2023,04,27,00,05,3.10
2023,04,27,00,06,3.10
2023,04,27,00,07,3.10
2023,04,27,00,08,3.10
2023,04,27,00,09,3.10
2023,04,27,00,10,3.10
2023,04,27,00,11,3.10
2023,04,27,00,12,3.10
2023,04,27,00,13,3.10
2023,04,27,00,14,3.00
2023,04,27,00,15,3.10
2023,04,27,00,16,3.20
2023,04,27,00,17,3.20
2023,04,27,00,18,3.30
2023,04,27,00,19,3.40
2023,04,27,00,20,3.60
2023,04,27,00,21,3.80
2023,04,27,00,22,4.00
2023,04,27,00,23,4.20
2023,04,27,00,24,4.40
2023,04,27,00,25,4.50
2023,04,27,00,26,4.60
2023,04,27,00,27,4.50
2023,04,27,00,28,4.50
2023,04,27,00,29,4.50
2023,04,27,00,30,4.40
2023,04,27,00,31,4.40
2023,04,27,00,32,4.30
2023,04,27,00,33,4.20
2023,04,27,00,34,4.20
2023,04,27,00,35,4.10
2023,04,27,00,36,4.00
2023,04,27,00,37,3.90
2023,04,27,00,38,4.00
2023,04,27,00,39,4.10
2023,04,27,00,40,4.20
2023,04,27,00,41,4.20
2023,04,27,00,42,4.20
2023,04,27,00,43,4.10
2023,04,27,00,44,4.10
2023,04,27,00,45,4.10
2023,04,27,00,46,4.20
2023,04,27,00,47,4.20
2023,04,27,00,48,4.10
2023,04,27,00,49,4.10
2023,04,27,00,50,4.10
2023,04,27,00,51,4.20
2023,04,27,00,52,4.30
2023,04,27,00,53,4.40
2023,04,27,00,54,4.50
2023,04,27,00,55,4.50
2023,04,27,00,56,4.50
2023,04,27,00,57,4.50
2023,04,27,00,58,4.50
2023,04,27,00,59,4.40
2023,04,27,01,00,4.40
2023,04,27,01,01,4.30
2023,04,27,01,02,4.30
2023,04,27,01,03,4.30
2023,04,27,01,04,4.40
2023,04,27,01,05,4.40
2023,04,27,01,06,4.60
2023,04,27,01,07,4.70
2023,04,27,01,08,4.80
2023,04,27,01,09,4.80
2023,04,27,01,10,4.90
2023,04,27,01,11,5.00
2023,04,27,01,12,5.10
2023,04,27,01,13,5.20
2023,04,27,01,14,5.20
2023,04,27,01,15,5.20
2023,04,27,01,16,5.20
2023,04,27,01,17,5.20
2023,04,27,01,18,5.20
2023,04,27,01,19,5.20
2023,04,27,01,20,5.30
2023,04,27,01,21,5.20
2023,04,27,01,22,5.20
2023,04,27,01,23,5.20
2023,04,27,01,24,5.30
2023,04,27,01,25,5.30
2023,04,27,01,26,5.40
2023,04,27,01,27,5.40
2023,04,27,01,28,5.30
2023,04,27,01,29,5.20
2023,04,27,01,30,5.10
2023,04,27,01,31,5.00
2023,04,27,01,32,4.90
2023,04,27,01,33,4.80
2023,04,27,01,34,4.70
2023,04,27,01,35,4.60
2023,04,27,01,36,4.50
2023,04,27,01,37,4.40
2023,04,27,01,38,4.40
2023,04,27,01,39,4.30
2023,04,27,01,40,4.20
2023,04,27,01,41,4.20
2023,04,27,01,42,4.10
2023,04,27,01,43,4.10
2023,04,27,01,44,4.10
2023,04,27,01,45,4.10
2023,04,27,01,46,4.10
2023,04,27,01,47,4.10
2023,04,27,01,48,4.10
2023,04,27,01,49,4.10
2023,04,27,01,50,4.10
2023,04,27,01,51,4.10
2023,04,27,01,52,4.10
2023,04,27,01,53,4.10
2023,04,27,01,54,4.10
2023,04,27,01,55,4.10
2023,04,27,01,56,4.00
2023,04,27,01,57,4.00
2023,04,27,01,58,4.00
2023,04,27,01,59,3.90
2023,04,27,02,00,3.90
2023,04,27,02,01,3.90
2023,04,27,02,02,3.90
2023,04,27,02,03,3.90
2023,04,27,02,04,3.90
2023,04,27,02,05,3.90
2023,04,27,02,06,3.90
2023,04,27,02,07,3.90
2023,04,27,02,08,3.80
2023,04,27,02,09,3.90
2023,04,27,02,10,3.90
2023,04,27,02,11,3.90
2023,04,27,02,12,3.90
2023,04,27,02,13,3.90
2023,04,27,02,14,3.80
2023,04,27,02,15,3.90
2023,04,27,02,16,3.90
2023,04,27,02,17,3.90
2023,04,27,02,18,3.90
2023,04,27,02,19,3.90
2023,04,27,02,20,3.90
2023,04,27,02,21,3.90
2023,04,27,02,22,4.00
2023,04,27,02,23,4.00
2023,04,27,02,24,4.00
2023,04,27,02,25,3.90
2023,04,27,02,26,3.90
2023,04,27,02,27,3.90
2023,04,27,02,28,3.90
2023,04,27,02,29,3.90
2023,04,27,02,30,3.90
2023,04,27,02,31,3.80
2023,04,27,02,32,3.80
2023,04,27,02,33,3.80
2023,04,27,02,34,3.80
2023,04,27,02,35,3.80
2023,04,27,02,36,3.80
2023,04,27,02,37,3.70
2023,04,27,02,38,3.70
2023,04,27,02,39,3.70
2023,04,27,02,40,3.70
2023,04,27,02,41,3.70
2023,04,27,02,42,3.70
2023,04,27,02,43,3.70
2023,04,27,02,44,3.80
2023,04,27,02,45,3.80
2023,04,27,02,46,3.90
2023,04,27,02,47,3.90
2023,04,27,02,48,3.90
2023,04,27,02,49,3.90
2023,04,27,02,50,3.90
2023,04,27,02,51,3.90
2023,04,27,02,52,3.90
2023,04,27,02,53,3.90
2023,04,27,02,54,3.90
2023,04,27,02,55,3.90
2023,04,27,02,56,3.90
2023,04,27,02,57,3.90
2023,04,27,02,58,4.00
2023,04,27,02,59,4.00
2023,04,27,03,00,4.00
2023,04,27,03,01,4.00
2023,04,27,03,02,4.00
2023,04,27,03,03,4.00
2023,04,27,03,04,3.90
2023,04,27,03,05,3.90
2023,04,27,03,06,3.90
2023,04,27,03,07,3.90
2023,04,27,03,08,4.00
2023,04,27,03,09,4.00
2023,04,27,03,10,4.00
2023,04,27,03,11,4.00
2023,04,27,03,12,4.00
2023,04,27,03,13,3.90
2023,04,27,03,14,4.00
2023,04,27,03,15,3.90
2023,04,27,03,16,4.00
2023,04,27,03,17,4.00
2023,04,27,03,18,4.00
2023,04,27,03,19,4.00
2023,04,27,03,20,4.00
2023,04,27,03,21,4.00
2023,04,27,03,22,4.00
2023,04,27,03,23,4.00
2023,04,27,03,24,4.00
2023,04,27,03,25,4.00
2023,04,27,03,26,4.00
2023,04,27,03,27,4.00
2023,04,27,03,28,4.00
2023,04,27,03,29,4.00
2023,04,27,03,30,4.00
2023,04,27,03,31,4.00
2023,04,27,03,32,4.00
2023,04,27,03,33,3.90
2023,04,27,03,34,3.90
2023,04,27,03,35,3.90
2023,04,27,03,36,3.80
2023,04,27,03,37,3.80
2023,04,27,03,38,3.80
2023,04,27,03,39,3.70
2023,04,27,03,40,3.70
2023,04,27,03,41,3.60
2023,04,27,03,42,3.60
2023,04,27,03,43,3.60
2023,04,27,03,44,3.60
2023,04,27,03,45,3.60
2023,04,27,03,46,3.60
2023,04,27,03,47,3.60
2023,04,27,03,48,3.50
2023,04,27,03,49,3.50
2023,04,27,03,50,3.50
2023,04,27,03,51,3.50
2023,04,27,03,52,3.50
2023,04,27,03,53,3.50
2023,04,27,03,54,3.60
2023,04,27,03,55,3.60
2023,04,27,03,56,3.60
2023,04,27,03,57,3.60
2023,04,27,03,58,3.60
2023,04,27,03,59,3.60
2023,04,27,04,00,3.70
2023,04,27,04,01,3.70
2023,04,27,04,02,3.70
2023,04,27,04,03,3.80
2023,04,27,04,04,3.80
2023,04,27,04,05,3.80
2023,04,27,04,06,3.80
2023,04,27,04,07,3.80
2023,04,27,04,08,3.90
2023,04,27,04,09,4.00
2023,04,27,04,10,4.00
2023,04,27,04,11,4.10
2023,04,27,04,12,4.10
2023,04,27,04,13,4.10
2023,04,27,04,14,4.10
2023,04,27,04,15,4.00
2023,04,27,04,16,4.00
2023,04,27,04,17,4.10
2023,04,27,04,18,4.10
2023,04,27,04,19,4.10
2023,04,27,04,20,4.20
2023,04,27,04,21,4.30
2023,04,27,04,22,4.30
2023,04,27,04,23,4.40
2023,04,27,04,24,4.40
2023,04,27,04,25,4.50
2023,04,27,04,26,4.60
2023,04,27,04,27,4.60
2023,04,27,04,28,4.60
2023,04,27,04,29,4.90
2023,04,27,04,30,5.10
2023,04,27,04,31,5.40
2023,04,27,04,32,5.50
2023,04,27,04,33,5.60
2023,04,27,04,34,5.60
2023,04,27,04,35,5.70
2023,04,27,04,36,5.70
2023,04,27,04,37,5.70
2023,04,27,04,38,5.60
2023,04,27,04,39,5.60
2023,04,27,04,40,5.60
2023,04,27,04,41,5.50
2023,04,27,04,42,5.50
2023,04,27,04,43,5.40
2023,04,27,04,44,5.40
2023,04,27,04,45,5.40
2023,04,27,04,46,5.40
2023,04,27,04,47,5.30
2023,04,27,04,48,5.30
2023,04,27,04,49,5.30
2023,04,27,04,50,5.20
2023,04,27,04,51,5.20
2023,04,27,04,52,5.10
2023,04,27,04,53,5.10
2023,04,27,04,54,5.00
2023,04,27,04,55,5.00
2023,04,27,04,56,5.00
2023,04,27,04,57,5.00
2023,04,27,04,58,5.00
2023,04,27,04,59,5.00
2023,04,27,05,00,5.00
2023,04,27,05,01,5.10
2023,04,27,05,02,5.10
2023,04,27,05,03,5.10
2023,04,27,05,04,5.10
2023,04,27,05,05,5.10
2023,04,27,05,06,5.20
2023,04,27,05,07,5.20
2023,04,27,05,08,5.20
2023,04,27,05,09,5.20
2023,04,27,05,10,5.30
2023,04,27,05,11,5.30
2023,04,27,05,12,5.30
2023,04,27,05,13,5.30
2023,04,27,05,14,5.40
2023,04,27,05,15,5.40
2023,04,27,05,16,5.40
2023,04,27,05,17,5.40
2023,04,27,05,18,5.40
2023,04,27,05,19,5.40
2023,04,27,05,20,5.40
2023,04,27,05,21,5.40
2023,04,27,05,22,5.40
2023,04,27,05,23,5.40
2023,04,27,05,24,5.40
2023,04,27,05,25,5.40
2023,04,27,05,26,5.40
2023,04,27,05,27,5.40
2023,04,27,05,28,5.40
2023,04,27,05,29,5.40
2023,04,27,05,30,5.30
2023,04,27,05,31,5.30
2023,04,27,05,32,5.30
2023,04,27,05,33,5.40
2023,04,27,05,34,5.40
2023,04,27,05,35,5.50
2023,04,27,05,36,5.60
2023,04,27,05,37,5.70
2023,04,27,05,38,5.70
2023,04,27,05,39,5.70
2023,04,27,05,40,5.70
2023,04,27,05,41,5.70
2023,04,27,05,42,5.80
2023,04,27,05,43,5.80
2023,04,27,05,44,5.80
2023,04,27,05,45,5.80
2023,04,27,05,46,5.80
2023,04,27,05,47,5.80
2023,04,27,05,48,5.90
2023,04,27,05,49,5.90
2023,04,27,05,50,6.00
2023,04,27,05,51,6.00
2023,04,27,05,52,6.00
2023,04,27,05,53,6.10
2023,04,27,05,54,6.10
2023,04,27,05,55,6.10
2023,04,27,05,56,6.10
2023,04,27,05,57,6.00
2023,04,27,05,58,6.00
2023,04,27,05,59,6.00
2023,04,27,06,00,6.00
2023,04,27,06,01,6.00
2023,04,27,06,02,6.00
2023,04,27,06,03,6.00
2023,04,27,06,04,6.00
2023,04,27,06,05,6.00
2023,04,27,06,06,6.00
2023,04,27,06,07,6.10
2023,04,27,06,08,6.10
2023,04,27,06,09,6.20
2023,04,27,06,10,6.20
2023,04,27,06,11,6.30
2023,04,27,06,12,6.30
2023,04,27,06,13,6.30
2023,04,27,06,14,6.30
2023,04,27,06,15,6.30
2023,04,27,06,16,6.40
2023,04,27,06,17,6.40
2023,04,27,06,18,6.50
2023,04,27,06,19,6.50
2023,04,27,06,20,6.50
2023,04,27,06,21,6.60
2023,04,27,06,22,6.60
2023,04,27,06,23,6.60
2023,04,27,06,24,6.60
2023,04,27,06,25,6.60
2023,04,27,06,26,6.60
2023,04,27,06,27,6.70
2023,04,27,06,28,6.70
2023,04,27,06,29,6.60
2023,04,27,06,30,6.60
2023,04,27,06,31,6.60
2023,04,27,06,32,6.60
2023,04,27,06,33,6.60
2023,04,27,06,34,6.60
2023,04,27,06,35,6.60
2023,04,27,06,36,6.60
2023,04,27,06,37,6.60
2023,04,27,06,38,6.60
2023,04,27,06,39,6.60
2023,04,27,06,40,6.60
2023,04,27,06,41,6.60
2023,04,27,06,42,6.60
2023,04,27,06,43,6.60
2023,04,27,06,44,6.60
2023,04,27,06,45,6.60
2023,04,27,06,46,6.60
2023,04,27,06,47,6.70
2023,04,27,06,48,6.70
2023,04,27,06,49,6.70
2023,04,27,06,50,6.70
2023,04,27,06,51,6.70
2023,04,27,06,52,6.70
2023,04,27,06,53,6.70
2023,04,27,06,54,6.70
2023,04,27,06,55,6.70
2023,04,27,06,56,6.70
2023,04,27,06,57,6.70
2023,04,27,06,58,6.80
2023,04,27,06,59,6.80
2023,04,27,07,00,6.80
2023,04,27,07,01,6.80
2023,04,27,07,02,6.80
2023,04,27,07,03,6.80
2023,04,27,07,04,6.80
2023,04,27,07,05,6.80
2023,04,27,07,06,6.80
2023,04,27,07,07,6.80
2023,04,27,07,08,6.80
2023,04,27,07,09,6.80
2023,04,27,07,10,6.80
2023,04,27,07,11,6.80
2023,04,27,07,12,6.80
2023,04,27,07,13,6.80
2023,04,27,07,14,6.90
2023,04,27,07,15,6.90
2023,04,27,07,16,6.90
2023,04,27,07,17,6.90
2023,04,27,07,18,6.90
2023,04,27,07,19,6.90
2023,04,27,07,20,7.00
2023,04,27,07,21,7.00
2023,04,27,07,22,7.00
2023,04,27,07,23,7.00
2023,04,27,07,24,7.10
2023,04,27,07,25,7.10
2023,04,27,07,26,7.10
2023,04,27,07,27,7.10
2023,04,27,07,28,7.10
2023,04,27,07,29,7.10
2023,04,27,07,30,7.10
2023,04,27,07,31,7.20
2023,04,27,07,32,7.20
2023,04,27,07,33,7.20
2023,04,27,07,34,7.20
2023,04,27,07,35,7.20
2023,04,27,07,36,7.10
2023,04,27,07,37,7.10
2023,04,27,07,38,7.10
2023,04,27,07,39,7.10
2023,04,27,07,40,7.10
2023,04,27,07,41,7.10
2023,04,27,07,42,7.10
2023,04,27,07,43,7.10
2023,04,27,07,44,7.10
2023,04,27,07,45,7.10
2023,04,27,07,46,7.20
2023,04,27,07,47,7.20
2023,04,27,07,48,7.20
2023,04,27,07,49,7.20
2023,04,27,07,50,7.30
2023,04,27,07,51,7.30
2023,04,27,07,52,7.40
2023,04,27,07,53,7.50
2023,04,27,07,54,7.60
2023,04,27,07,55,7.60
2023,04,27,07,56,7.70
2023,04,27,07,57,7.80
2023,04,27,07,58,7.90
2023,04,27,07,59,7.90
2023,04,27,08,00,8.00
2023,04,27,08,01,8.10
2023,04,27,08,02,8.20
2023,04,27,08,03,8.30
2023,04,27,08,04,8.30
2023,04,27,08,05,8.30
2023,04,27,08,06,8.40
2023,04,27,08,07,8.40
2023,04,27,08,08,8.40
2023,04,27,08,09,8.50
2023,04,27,08,10,8.50
2023,04,27,08,11,8.50
2023,04,27,08,12,8.60
2023,04,27,08,13,8.60
2023,04,27,08,14,8.70
2023,04,27,08,15,8.70
2023,04,27,08,16,8.70
2023,04,27,08,17,8.80
2023,04,27,08,18,8.80
2023,04,27,08,19,8.80
2023,04,27,08,20,8.80
2023,04,27,08,21,8.80
2023,04,27,08,22,8.90
2023,04,27,08,23,8.90
2023,04,27,08,24,8.90
2023,04,27,08,25,8.90
2023,04,27,08,26,9.00
2023,04,27,08,27,9.00
2023,04,27,08,28,9.10
2023,04,27,08,29,9.10
2023,04,27,08,30,9.10
2023,04,27,08,31,9.20
2023,04,27,08,32,9.20
2023,04,27,08,33,9.30
2023,04,27,08,34,9.30
2023,04,27,08,35,9.30
2023,04,27,08,36,9.40
2023,04,27,08,37,9.40
2023,04,27,08,38,9.40
2023,04,27,08,39,9.50
2023,04,27,08,40,9.50
2023,04,27,08,41,9.50
2023,04,27,08,42,9.50
2023,04,27,08,43,9.60
2023,04,27,08,44,9.60
2023,04,27,08,45,9.70
2023,04,27,08,46,9.70
2023,04,27,08,47,9.80
2023,04,27,08,48,9.90
2023,04,27,08,49,10.00
2023,04,27,08,50,10.10
2023,04,27,08,51,10.20
2023,04,27,08,52,10.30
2023,04,27,08,53,10.30
2023,04,27,08,54,10.30
2023,04,27,08,55,10.30
2023,04,27,08,56,10.30
2023,04,27,08,57,10.30
2023,04,27,08,58,10.30
2023,04,27,08,59,10.30
2023,04,27,09,00,10.30
2023,04,27,09,01,10.40
2023,04,27,09,02,10.40
2023,04,27,09,03,10.50
2023,04,27,09,04,10.60
2023,04,27,09,05,10.60
2023,04,27,09,06,10.60
2023,04,27,09,07,10.60
2023,04,27,09,08,10.40
2023,04,27,09,09,10.30
2023,04,27,09,10,10.20
2023,04,27,09,11,10.00
2023,04,27,09,12,9.90
2023,04,27,09,13,9.80
2023,04,27,09,14,9.70
2023,04,27,09,15,9.70
2023,04,27,09,16,9.60
2023,04,27,09,17,9.60
2023,04,27,09,18,9.50
2023,04,27,09,19,9.50
2023,04,27,09,20,9.50
2023,04,27,09,21,9.50
2023,04,27,09,22,9.50
2023,04,27,09,23,9.50
2023,04,27,09,24,9.50
2023,04,27,09,25,9.60
2023,04,27,09,26,9.60
2023,04,27,09,27,9.70
2023,04,27,09,28,9.70
2023,04,27,09,29,9.90
2023,04,27,09,30,10.00
2023,04,27,09,31,10.10
2023,04,27,09,32,10.30
2023,04,27,09,33,10.40
2023,04,27,09,34,10.40
2023,04,27,09,35,10.40
2023,04,27,09,36,10.40
2023,04,27,09,37,10.40
2023,04,27,09,38,10.50
2023,04,27,09,39,10.40
2023,04,27,09,40,10.40
2023,04,27,09,41,10.40
2023,04,27,09,42,10.40
2023,04,27,09,43,10.50
2023,04,27,09,44,10.50
2023,04,27,09,45,10.60
2023,04,27,09,46,10.60
2023,04,27,09,47,10.60
2023,04,27,09,48,10.50
2023,04,27,09,49,10.60
2023,04,27,09,50,10.50
2023,04,27,09,51,10.40
2023,04,27,09,52,10.30
2023,04,27,09,53,10.20
2023,04,27,09,54,10.20
2023,04,27,09,55,10.20
2023,04,27,09,56,10.20
2023,04,27,09,57,10.30
2023,04,27,09,58,10.30
2023,04,27,09,59,10.30
2023,04,27,10,00,10.30
2023,04,27,10,01,10.40
2023,04,27,10,02,10.50
2023,04,27,10,03,10.60
2023,04,27,10,04,10.70
2023,04,27,10,05,10.60
2023,04,27,10,06,10.60
2023,04,27,10,07,10.50
2023,04,27,10,08,10.50
2023,04,27,10,09,10.50
2023,04,27,10,10,10.50
2023,04,27,10,11,10.40
2023,04,27,10,12,10.40
2023,04,27,10,13,10.40
2023,04,27,10,14,10.30
2023,04,27,10,15,10.30
2023,04,27,10,16,10.30
2023,04,27,10,17,10.30
2023,04,27,10,18,10.30
2023,04,27,10,19,10.30
2023,04,27,10,20,10.40
2023,04,27,10,21,10.40
2023,04,27,10,22,10.50
2023,04,27,10,23,10.50
2023,04,27,10,24,10.60
2023,04,27,10,25,10.60
2023,04,27,10,26,10.60
2023,04,27,10,27,10.70
2023,04,27,10,28,10.80
2023,04,27,10,29,10.80
2023,04,27,10,30,10.90
2023,04,27,10,31,10.90
2023,04,27,10,32,11.00
2023,04,27,10,33,11.00
2023,04,27,10,34,11.00
2023,04,27,10,35,11.00
2023,04,27,10,36,11.00
2023,04,27,10,37,11.00
2023,04,27,10,38,10.90
2023,04,27,10,39,10.90
2023,04,27,10,40,10.80
2023,04,27,10,41,10.70
2023,04,27,10,42,10.70
2023,04,27,10,43,10.70
2023,04,27,10,44,10.70
2023,04,27,10,45,10.70
2023,04,27,10,46,10.60
2023,04,27,10,47,10.40
2023,04,27,10,48,10.40
2023,04,27,10,49,10.40
2023,04,27,10,50,10.40
2023,04,27,10,51,10.20
2023,04,27,10,52,10.10
2023,04,27,10,53,10.00
2023,04,27,10,54,9.90
2023,04,27,10,55,9.90
2023,04,27,10,56,9.90
2023,04,27,10,57,9.80
2023,04,27,10,58,9.80
2023,04,27,10,59,9.80
2023,04,27,11,00,9.90
2023,04,27,11,01,9.80
2023,04,27,11,02,9.80
2023,04,27,11,03,9.70
2023,04,27,11,04,9.60
2023,04,27,11,05,9.50
2023,04,27,11,06,9.40
2023,04,27,11,07,9.40
2023,04,27,11,08,9.40
2023,04,27,11,09,9.40
2023,04,27,11,10,9.50
2023,04,27,11,11,9.60
2023,04,27,11,12,9.60
2023,04,27,11,13,9.70
2023,04,27,11,14,9.70
2023,04,27,11,15,9.80
2023,04,27,11,16,9.90
2023,04,27,11,17,10.00
2023,04,27,11,18,10.20
2023,04,27,11,19,10.30
2023,04,27,11,20,10.40
2023,04,27,11,21,10.40
2023,04,27,11,22,10.50
2023,04,27,11,23,10.50
2023,04,27,11,24,10.50
2023,04,27,11,25,10.50
2023,04,27,11,26,10.40
2023,04,27,11,27,10.40
2023,04,27,11,28,10.40
2023,04,27,11,29,10.30
2023,04,27,11,30,10.20
2023,04,27,11,31,10.20
2023,04,27,11,32,10.10
2023,04,27,11,33,10.00
2023,04,27,11,34,9.90
2023,04,27,11,35,9.90
2023,04,27,11,36,9.90
2023,04,27,11,37,9.90
2023,04,27,11,38,10.00
2023,04,27,11,39,10.00
2023,04,27,11,40,10.00
2023,04,27,11,41,10.00
2023,04,27,11,42,10.00
2023,04,27,11,43,9.90
2023,04,27,11,44,9.80
2023,04,27,11,45,9.80
2023,04,27,11,46,9.80
2023,04,27,11,47,9.80
2023,04,27,11,48,9.90
2023,04,27,11,49,9.90
2023,04,27,11,50,10.00
2023,04,27,11,51,10.10
2023,04,27,11,52,10.10
2023,04,27,11,53,10.10
2023,04,27,11,54,10.20
2023,04,27,11,55,10.10
2023,04,27,11,56,10.10
2023,04,27,11,57,10.20
2023,04,27,11,58,10.20
2023,04,27,11,59,10.20
2023,04,27,12,00,10.30
2023,04,27,12,01,10.30
2023,04,27,12,02,10.40
2023,04,27,12,03,10.50
2023,04,27,12,04,10.50
2023,04,27,12,05,10.40
2023,04,27,12,06,10.40
2023,04,27,12,07,10.40
2023,04,27,12,08,10.50
2023,04,27,12,09,10.60
2023,04,27,12,10,10.50
2023,04,27,12,11,10.50
2023,04,27,12,12,10.50
2023,04,27,12,13,10.40
2023,04,27,12,14,10.40
2023,04,27,12,15,10.40
2023,04,27,12,16,10.50
2023,04,27,12,17,10.50
2023,04,27,12,18,10.50
2023,04,27,12,19,10.60
2023,04,27,12,20,10.60
2023,04,27,12,21,10.70
2023,04,27,12,22,10.70
2023,04,27,12,23,10.70
2023,04,27,12,24,10.60
2023,04,27,12,25,10.60
2023,04,27,12,26,10.60
2023,04,27,12,27,10.70
2023,04,27,12,28,10.70
2023,04,27,12,29,10.60
2023,04,27,12,30,10.60
2023,04,27,12,31,10.60
2023,04,27,12,32,10.60
2023,04,27,12,33,10.60
2023,04,27,12,34,10.60
2023,04,27,12,35,10.70
2023,04,27,12,36,10.80
2023,04,27,12,37,11.00
2023,04,27,12,38,11.00
2023,04,27,12,39,11.10
2023,04,27,12,40,11.20
2023,04,27,12,41,11.30
2023,04,27,12,42,11.20
2023,04,27,12,43,11.20
2023,04,27,12,44,11.20
2023,04,27,12,45,11.20
2023,04,27,12,46,11.20
2023,04,27,12,47,11.30
2023,04,27,12,48,11.30
2023,04,27,12,49,11.40
2023,04,27,12,50,11.50
2023,04,27,12,51,11.60
2023,04,27,12,52,11.60
2023,04,27,12,53,11.70
2023,04,27,12,54,11.70
2023,04,27,12,55,11.70
2023,04,27,12,56,11.60
2023,04,27,12,57,11.60
2023,04,27,12,58,11.50
2023,04,27,12,59,11.50
2023,04,27,13,00,11.50
2023,04,27,13,01,11.50
2023,04,27,13,02,11.60
2023,04,27,13,03,11.60
2023,04,27,13,04,11.70
2023,04,27,13,05,11.80
2023,04,27,13,06,11.80
2023,04,27,13,07,11.90
2023,04,27,13,08,12.00
2023,04,27,13,09,12.00
2023,04,27,13,10,12.10
2023,04,27,13,11,12.10
2023,04,27,13,12,12.10
2023,04,27,13,13,12.00
2023,04,27,13,14,12.00
2023,04,27,13,15,11.90
2023,04,27,13,16,11.90
2023,04,27,13,17,11.90
2023,04,27,13,18,11.90
2023,04,27,13,19,11.90
2023,04,27,13,20,11.90
2023,04,27,13,21,11.90
2023,04,27,13,22,11.70
2023,04,27,13,23,11.60
2023,04,27,13,24,11.40
2023,04,27,13,25,11.40
2023,04,27,13,26,11.30
2023,04,27,13,27,11.30
2023,04,27,13,28,11.30
2023,04,27,13,29,11.30
2023,04,27,13,30,11.30
2023,04,27,13,31,11.40
2023,04,27,13,32,11.50
2023,04,27,13,33,11.60
2023,04,27,13,34,11.70
2023,04,27,13,35,11.80
2023,04,27,13,36,11.90
2023,04,27,13,37,11.90
2023,04,27,13,38,11.90
2023,04,27,13,39,11.90
2023,04,27,13,40,11.90
2023,04,27,13,41,11.80
2023,04,27,13,42,11.70
2023,04,27,13,43,11.70
2023,04,27,13,44,11.70
2023,04,27,13,45,11.60
2023,04,27,13,46,11.60
2023,04,27,13,47,11.50
2023,04,27,13,48,11.50
2023,04,27,13,49,11.50
2023,04,27,13,50,11.40
2023,04,27,13,51,11.40
2023,04,27,13,52,11.40
2023,04,27,13,53,11.30
2023,04,27,13,54,11.30
2023,04,27,13,55,11.30
2023,04,27,13,56,11.30
2023,04,27,13,57,11.30
2023,04,27,13,58,11.30
2023,04,27,13,59,11.30
2023,04,27,14,00,11.30
2023,04,27,14,01,11.20
2023,04,27,14,02,11.10
2023,04,27,14,03,11.10
2023,04,27,14,04,11.10
2023,04,27,14,05,11.20
2023,04,27,14,06,11.30
2023,04,27,14,07,11.50
2023,04,27,14,08,11.60
2023,04,27,14,09,11.70
2023,04,27,14,10,11.70
2023,04,27,14,11,11.80
2023,04,27,14,12,11.80
2023,04,27,14,13,11.80
2023,04,27,14,14,11.70
2023,04,27,14,15,11.60
2023,04,27,14,16,11.50
2023,04,27,14,17,11.30
2023,04,27,14,18,11.30
2023,04,27,14,19,11.30
2023,04,27,14,20,11.30
2023,04,27,14,21,11.50
2023,04,27,14,22,11.60
2023,04,27,14,23,11.70
2023,04,27,14,24,11.90
2023,04,27,14,25,12.00
2023,04,27,14,26,12.10
2023,04,27,14,27,12.20
2023,04,27,14,28,12.20
2023,04,27,14,29,12.30
2023,04,27,14,30,12.30
2023,04,27,14,31,12.30
2023,04,27,14,32,12.40
2023,04,27,14,33,12.50
2023,04,27,14,34,12.50
2023,04,27,14,35,12.60
2023,04,27,14,36,12.70
2023,04,27,14,37,12.80
2023,04,27,14,38,12.90
2023,04,27,14,39,13.00
2023,04,27,14,40,13.10
2023,04,27,14,41,13.20
2023,04,27,14,42,13.20
2023,04,27,14,43,13.20
2023,04,27,14,44,13.20
2023,04,27,14,45,13.40
2023,04,27,14,46,13.50
2023,04,27,14,47,13.60
2023,04,27,14,48,13.80
2023,04,27,14,49,14.00
2023,04,27,14,50,14.10
2023,04,27,14,51,14.20
2023,04,27,14,52,14.00
2023,04,27,14,53,13.80
2023,04,27,14,54,13.60
2023,04,27,14,55,13.50
2023,04,27,14,56,13.50
2023,04,27,14,57,13.40
2023,04,27,14,58,13.30
2023,04,27,14,59,13.30
2023,04,27,15,00,13.20
2023,04,27,15,01,13.20
2023,04,27,15,02,13.20
2023,04,27,15,03,13.20
2023,04,27,15,04,13.30
2023,04,27,15,05,13.40
2023,04,27,15,06,13.40
2023,04,27,15,07,13.60
2023,04,27,15,08,13.60
2023,04,27,15,09,13.60
2023,04,27,15,10,13.60
2023,04,27,15,11,13.60
2023,04,27,15,12,13.70
2023,04,27,15,13,13.70
2023,04,27,15,14,13.70
2023,04,27,15,15,13.70
2023,04,27,15,16,13.60
2023,04,27,15,17,13.60
2023,04,27,15,18,13.70
2023,04,27,15,19,13.70
2023,04,27,15,20,13.70
2023,04,27,15,21,13.90
2023,04,27,15,22,14.00
2023,04,27,15,23,14.00
2023,04,27,15,24,14.00
2023,04,27,15,25,13.90
2023,04,27,15,26,13.80
2023,04,27,15,27,13.80
2023,04,27,15,28,13.70
2023,04,27,15,29,13.70
2023,04,27,15,30,13.60
2023,04,27,15,31,13.50
2023,04,27,15,32,13.50
2023,04,27,15,33,13.40
2023,04,27,15,34,13.30
2023,04,27,15,35,13.30
2023,04,27,15,36,13.30
2023,04,27,15,37,13.30
2023,04,27,15,38,13.30
2023,04,27,15,39,13.30
2023,04,27,15,40,13.20
2023,04,27,15,41,13.30
2023,04,27,15,42,13.30
2023,04,27,15,43,13.30
2023,04,27,15,44,13.30
2023,04,27,15,45,13.30
2023,04,27,15,46,13.20
2023,04,27,15,47,13.20
2023,04,27,15,48,13.00
2023,04,27,15,49,12.90
2023,04,27,15,50,12.70
2023,04,27,15,51,12.60
2023,04,27,15,52,12.40
2023,04,27,15,53,12.30
2023,04,27,15,54,12.20
2023,04,27,15,55,12.10
2023,04,27,15,56,12.10
2023,04,27,15,57,12.00
2023,04,27,15,58,12.00
2023,04,27,15,59,12.10
2023,04,27,16,00,12.10
2023,04,27,16,01,12.10
2023,04,27,16,02,12.10
2023,04,27,16,03,12.20
2023,04,27,16,04,12.10
2023,04,27,16,05,12.10
2023,04,27,16,06,12.10
2023,04,27,16,07,12.00
2023,04,27,16,08,12.00
2023,04,27,16,09,11.90
2023,04,27,16,10,11.90
2023,04,27,16,11,11.80
2023,04,27,16,12,11.70
2023,04,27,16,13,11.70
2023,04,27,16,14,11.60
2023,04,27,16,15,11.50
2023,04,27,16,16,11.50
2023,04,27,16,17,11.40
2023,04,27,16,18,11.30
2023,04,27,16,19,11.30
2023,04,27,16,20,11.30
2023,04,27,16,21,11.30
2023,04,27,16,22,11.30
2023,04,27,16,23,11.30
2023,04,27,16,24,11.30
2023,04,27,16,25,11.20
2023,04,27,16,26,11.20
2023,04,27,16,27,11.10
2023,04,27,16,28,11.10
2023,04,27,16,29,11.00
2023,04,27,16,30,11.00
2023,04,27,16,31,11.00
2023,04,27,16,32,11.00
2023,04,27,16,33,10.90
2023,04,27,16,34,10.90
2023,04,27,16,35,10.80
2023,04,27,16,36,10.80
2023,04,27,16,37,10.80
2023,04,27,16,38,10.80
2023,04,27,16,39,10.70
2023,04,27,16,40,10.70
2023,04,27,16,41,10.70
2023,04,27,16,42,10.70
2023,04,27,16,43,10.70
2023,04,27,16,44,10.70
2023,04,27,16,45,10.70
2023,04,27,16,46,10.70
2023,04,27,16,47,10.70
2023,04,27,16,48,10.70
2023,04,27,16,49,10.60
2023,04,27,16,50,10.60
2023,04,27,16,51,10.60
2023,04,27,16,52,10.60
2023,04,27,16,53,10.60
2023,04,27,16,54,10.60
2023,04,27,16,55,10.60
2023,04,27,16,56,10.60
2023,04,27,16,57,10.50
2023,04,27,16,58,10.50
2023,04,27,16,59,10.50
2023,04,27,17,00,10.50
2023,04,27,17,01,10.50
2023,04,27,17,02,10.50
2023,04,27,17,03,10.50
2023,04,27,17,04,10.50
2023,04,27,17,05,10.50
2023,04,27,17,06,10.50
2023,04,27,17,07,10.50
2023,04,27,17,08,10.50
2023,04,27,17,09,10.40
2023,04,27,17,10,10.40
2023,04,27,17,11,10.40
2023,04,27,17,12,10.40
2023,04,27,17,13,10.40
2023,04,27,17,14,10.50
2023,04,27,17,15,10.50
2023,04,27,17,16,10.60
2023,04,27,17,17,10.60
2023,04,27,17,18,10.60
2023,04,27,17,19,10.60
2023,04,27,17,20,10.60
2023,04,27,17,21,10.60
2023,04,27,17,22,10.60
2023,04,27,17,23,10.50
2023,04,27,17,24,10.50
2023,04,27,17,25,10.50
2023,04,27,17,26,10.60
2023,04,27,17,27,10.60
2023,04,27,17,28,10.70
2023,04,27,17,29,10.80
2023,04,27,17,30,10.80
2023,04,27,17,31,10.70
2023,04,27,17,32,10.70
2023,04,27,17,33,10.70
2023,04,27,17,34,10.70
2023,04,27,17,35,10.70
2023,04,27,17,36,10.70
2023,04,27,17,37,10.70
2023,04,27,17,38,10.70
2023,04,27,17,39,10.70
2023,04,27,17,40,10.70
2023,04,27,17,41,10.70
2023,04,27,17,42,10.70
2023,04,27,17,43,10.70
2023,04,27,17,44,10.80